Regional Weather Roundup
Issued by NWS State College, PA

Home | Current Version | Previous Version | Text Only | Print | Product List | Glossary Off
Versions: 1 2 3 4 5 6 7 8 9 10 11 12 13 14 15 16 17 18 19 20 21 22 23 24 25 26 27 28 29 30 31 32 33 34 35 36 37 38 39 40 41 42 43 44 45 46 47 48 49 50

000
ASUS41 KCTP 261410
RWRCTP

REGIONAL WEATHER ROUNDUP
NATIONAL WEATHER SERVICE STATE COLLEGE PA
1000 AM EDT WED APR 26 2017

Note: "fair" indicates few or no clouds below 12,000 feet with no
significant weather and/or obstructions to visibility.

* = STATION THAT DOES NOT REPORT PRECIPITATION /E.G. RAIN...SNOW...ETC/
    THUNDER OR FOG.

PAZ002>004-007>009-013>016-020>023-029>032-261500-
WESTERN PENNSYLVANIA

CITY           SKY/WX    TMP DP  RH WIND       PRES   REMARKS
ERIE           PTSUNNY   62  53  72 SE5       29.78F
MEADVILLE      CLOUDY    58  53  84 S7        29.80S
FRANKLIN*      CLOUDY    54  48  82 S6        29.83R
NEW CASTLE     FAIR      63  54  72 S6        29.81S
BEAVER COUNTY  MOSUNNY   59  54  82 S6        29.80S
BUTLER*        CLOUDY    57  52  82 SE3       29.83R
PITTSBURGH INT MOSUNNY   60  54  80 S6        29.81R
PITTSBURGH     PTSUNNY   59  51  75 CALM      29.81S
INDIANA*       CLOUDY    61  54  77 VRB5      29.84R
LATROBE        PTSUNNY   57  54  88 CALM      29.83R
WASHINGTON CO* SUNNY     57  54  88 CALM      29.83S
$$

PAZ004>006-010>012-017>019-024>028-033>037-041-042-045-046-049>053-261500-
CENTRAL PENNSYLVANIA

CITY           SKY/WX    TMP DP  RH WIND       PRES   REMARKS
BRADFORD       CLOUDY    56  54  93 E5        29.81S
DUBOIS         CLOUDY    56  52  86 CALM      29.81R
CLEARFIELD     CLOUDY    56  54  93 E5        29.81F
JOHNSTOWN      CLOUDY    56  53  90 CALM      29.81R
ALTOONA        CLOUDY    56  54  93 CALM      29.82R
STATE COLLEGE  FOG       55  54  94 CALM      29.82R VSB 1
WILLIAMSPORT   CLOUDY    58  53  84 CALM      29.78S
SELINSGROVE    CLOUDY    58  54  86 NE6       29.80R
FT INDIANTOWN  CLOUDY    58  58 100 N5        29.78R
CAPITAL CITY   CLOUDY    58  55  90 CALM      29.78S FOG
HARRISBURG     CLOUDY    57  56  96 CALM      29.77S
YORK           LGT RAIN  57  57 100 N5        29.78S FOG
$$

PAZ038>040-043-044-047-048-054-055-060>062-067>071-261500-
EASTERN PENNSYLVANIA

CITY           SKY/WX    TMP DP  RH WIND       PRES   REMARKS
SCRANTON       CLOUDY    61  52  72 NE9       29.78F
MOUNT POCONO   CLOUDY    51  51 100 NE7       29.78F FOG
ALLENTOWN      CLOUDY    60  53  77 NE12      29.77R
QUAKERTOWN*    CLOUDY    59  55  88 NE7       29.77S
READING        CLOUDY    58  55  90 NE6       29.77R
LANCASTER      CLOUDY    57  56  96 NE8       29.77R
COATESVILLE    CLOUDY    55  55 100 N5        29.78R FOG
POTTSTOWN      CLOUDY    56  53  90 NE5       29.78R
BLUE BELL      CLOUDY    54  54 100 CALM      29.78R
DOYLESTOWN     CLOUDY    57  55  93 NE6       29.76R
WILLOW GROVE   NOT AVBL
NORTH PHILA    CLOUDY    58  56  93 NE7       29.77R FOG
PHILADELPHIA   CLOUDY    58  56  93 NE10      29.75S
$$



USA.gov is the U.S. government's official web portal to all federal, state and local government web resources and services.